| time (UTC) | temp F | wind direction | speed MPH | gust MPH | rain 1hr in | rain 24hr in | rain mn in | humidity % | barometer mb |
| 20260905091450 | 54 | 0.0 | 0.0 | 0.00 | 0.17 | 0.00 | 99 | 1016.5 | |
| 20260905090430 | 54 | 0.0 | 0.0 | 0.00 | 0.18 | 0.00 | 99 | 1016.5 | |
| 20260905085430 | 53 | 0.0 | 0.0 | 0.00 | 0.18 | 0.00 | 99 | 1016.5 | |
| 20260905084430 | 53 | 0.0 | 0.0 | 0.00 | 0.18 | 0.00 | 99 | 1016.4 | |
| 20260905083430 | 53 | 0.0 | 0.0 | 0.00 | 0.18 | 0.00 | 99 | 1016.3 | |
| 20260905082431 | 54 | 0.0 | 0.0 | 0.00 | 0.18 | 0.00 | 99 | 1016.3 | |
| 20260905081451 | 54 | 0.0 | 0.0 | 0.00 | 0.18 | 0.00 | 99 | 1016.3 | |
| 20260905080431 | 54 | 0.0 | 0.0 | 0.00 | 0.18 | 0.00 | 99 | 1016.3 | |
| 20260905075431 | 54 | 0.0 | 0.0 | 0.00 | 0.18 | 0.00 | 99 | 1016.2 | |
| 20260905074417 | 53 | 0.0 | 0.0 | 0.00 | 0.18 | 0.00 | 99 | 1016.1 | |
| 20260905073417 | 54 | 0.0 | 0.0 | 0.00 | 0.18 | 0.00 | 99 | 1016.3 | |
| 20260905072417 | 53 | 0.0 | 0.0 | 0.00 | 0.18 | 0.00 | 99 | 1016.3 | |
| 20260905071418 | 54 | 0.0 | 0.0 | 0.00 | 0.19 | 0.00 | 99 | 1016.1 | |
| 20260905070417 | 54 | 0.0 | 0.0 | 0.00 | 0.19 | 0.00 | 99 | 1016.0 | |
| 20260905065418 | 54 | 0.0 | 0.0 | 0.00 | 0.19 | 0.00 | 99 | 1016.0 | |
| 20260905064418 | 54 | 0.0 | 0.0 | 0.00 | 0.21 | 0.00 | 99 | 1015.8 | |
| 20260905063438 | 54 | 0.0 | 0.0 | 0.00 | 0.22 | 0.00 | 99 | 1015.8 | |
| 20260905062438 | 54 | 0.0 | 0.0 | 0.00 | 0.22 | 0.00 | 99 | 1015.3 | |
| 20260905061418 | 54 | 175 | 0.0 | 1.0 | 0.00 | 0.22 | 0.00 | 99 | 1015.9 |
| 20260905060418 | 54 | 113 | 1.0 | 1.0 | 0.00 | 0.23 | 0.00 | 99 | 1015.2 |
| 20260905055418 | 54 | 0.0 | 0.0 | 0.00 | 0.23 | 0.23 | 99 | 1015.2 | |
| 20260905054418 | 54 | 0.0 | 0.0 | 0.00 | 0.23 | 0.23 | 99 | 1015.1 | |
| 20260905053418 | 54 | 0.0 | 0.0 | 0.00 | 0.23 | 0.23 | 99 | 1015.2 | |
| 20260905052439 | 55 | 72 | 0.0 | 1.0 | 0.00 | 0.23 | 0.23 | 99 | 1015.3 |
| 20260905051419 | 55 | 0.0 | 0.0 | 0.00 | 0.24 | 0.23 | 99 | 1015.3 | |
| 20260905050419 | 55 | 0.0 | 0.0 | 0.00 | 0.24 | 0.23 | 99 | 1015.4 | |
| 20260905045419 | 55 | 0 | 0.0 | 0.0 | 0.00 | 0.24 | 0.23 | 98 | 1015.3 |
| 20260905044419 | 55 | 201 | 1.0 | 1.0 | 0.00 | 0.24 | 0.23 | 96 | 1015.3 |
| 20260905043420 | 55 | 0.0 | 0.0 | 0.00 | 0.24 | 0.23 | 95 | 1015.2 | |
| 20260905042420 | 55 | 0.0 | 0.0 | 0.00 | 0.24 | 0.23 | 95 | 1015.1 | |
| 20260905041420 | 55 | 0.0 | 0.0 | 0.00 | 0.24 | 0.23 | 94 | 1015.2 | |
| 20260905040500 | 56 | 0.0 | 0.0 | 0.00 | 0.24 | 0.23 | 94 | 1015.2 | |
| 20260905035420 | 56 | 0.0 | 0.0 | 0.00 | 0.24 | 0.23 | 93 | 1015.8 | |
| 20260905034421 | 56 | 0.0 | 0.0 | 0.00 | 0.24 | 0.23 | 93 | 1015.2 | |
| 20260905033441 | 56 | 243 | 1.0 | 2.0 | 0.00 | 0.24 | 0.23 | 91 | 1014.9 |
| 20260905032421 | 57 | 0.0 | 0.0 | 0.00 | 0.24 | 0.23 | 91 | 1015.1 | |
| 20260905031421 | 57 | 0.0 | 0.0 | 0.00 | 0.24 | 0.23 | 90 | 1015.1 | |
| 20260905030421 | 57 | 0.0 | 0.0 | 0.00 | 0.24 | 0.23 | 90 | 1015.0 | |
| 20260905025421 | 58 | 0.0 | 0.0 | 0.00 | 0.24 | 0.23 | 90 | 1015.0 | |
| 20260905024422 | 58 | 0.0 | 0.0 | 0.00 | 0.24 | 0.23 | 90 | 1014.8 | |
| 20260905023422 | 58 | 0.0 | 0.0 | 0.00 | 0.24 | 0.23 | 89 | 1014.8 | |
| 20260905022422 | 59 | 0.0 | 0.0 | 0.00 | 0.24 | 0.23 | 86 | 1015.1 | |
| 20260905021423 | 59 | 0.0 | 0.0 | 0.00 | 0.24 | 0.23 | 86 | 1015.0 | |
| 20260905020422 | 60 | 0.0 | 0.0 | 0.00 | 0.24 | 0.23 | 85 | 1015.1 | |
| 20260905015422 | 61 | 0.0 | 0.0 | 0.00 | 0.24 | 0.23 | 84 | 1015.4 | |
| 20260905014423 | 61 | 0.0 | 0.0 | 0.00 | 0.24 | 0.23 | 83 | 1015.2 | |
| 20260905013423 | 61 | 0.0 | 0.0 | 0.00 | 0.24 | 0.23 | 83 | 1015.1 | |
| 20260905012443 | 61 | 0.0 | 0.0 | 0.00 | 0.24 | 0.23 | 83 | 1015.2 | |
| 20260905011423 | 61 | 0.0 | 0.0 | 0.00 | 0.24 | 0.23 | 83 | 1015.2 | |
| 20260905010444 | 60 | 0.0 | 0.0 | 0.00 | 0.24 | 0.23 | 84 | 1015.4 | |
| 20260905005423 | 60 | 0.0 | 0.0 | 0.00 | 0.24 | 0.23 | 84 | 1015.2 | |
| 20260905004424 | 60 | 0.0 | 0.0 | 0.00 | 0.24 | 0.23 | 84 | 1015.3 | |
| 20260905003424 | 60 | 0.0 | 0.0 | 0.00 | 0.24 | 0.23 | 83 | 1015.8 | |
| 20260905002424 | 60 | 0.0 | 0.0 | 0.00 | 0.24 | 0.23 | 81 | 1015.4 | |
| 20260905001444 | 60 | 0.0 | 0.0 | 0.00 | 0.24 | 0.23 | 83 | 1015.8 | |
| 20260905000425 | 61 | 289 | 1.0 | 2.0 | 0.00 | 0.24 | 0.23 | 83 | 1015.9 |
| 20260904235424 | 60 | 311 | 1.0 | 1.0 | 0.00 | 0.24 | 0.23 | 83 | 1015.7 |
| 20260904234425 | 60 | 222 | 1.0 | 3.0 | 0.00 | 0.24 | 0.23 | 85 | 1015.7 |
| 20260904233425 | 59 | 0 | 0.0 | 0.0 | 0.00 | 0.24 | 0.23 | 85 | 1015.7 |
| 20260904232425 | 59 | 0.0 | 0.0 | 0.00 | 0.24 | 0.23 | 86 | 1015.7 | |
| 20260904231425 | 58 | 0.0 | 0.0 | 0.00 | 0.24 | 0.23 | 90 | 1016.0 | |
| 20260904230426 | 57 | 244 | 0.0 | 1.0 | 0.00 | 0.24 | 0.23 | 91 | 1015.9 |
| 20260904225426 | 56 | 0.0 | 0.0 | 0.00 | 0.24 | 0.23 | 93 | 1016.0 | |
| 20260904224426 | 56 | 0.0 | 0.0 | 0.00 | 0.24 | 0.23 | 94 | 1015.9 | |
| 20260904223446 | 55 | 0.0 | 0.0 | 0.00 | 0.24 | 0.23 | 96 | 1016.1 | |
| 20260904222426 | 55 | 0.0 | 0.0 | 0.00 | 0.24 | 0.23 | 98 | 1016.3 | |
| 20260904221426 | 54 | 0.0 | 0.0 | 0.00 | 0.24 | 0.23 | 99 | 1016.4 | |
| 20260904220427 | 54 | 0.0 | 0.0 | 0.02 | 0.24 | 0.23 | 98 | 1016.4 | |
| 20260904215426 | 54 | 0.0 | 0.0 | 0.03 | 0.24 | 0.23 | 96 | 1016.4 | |
| 20260904214427 | 54 | 0.0 | 0.0 | 0.03 | 0.24 | 0.23 | 96 | 1016.4 | |
| 20260904213447 | 54 | 0.0 | 0.0 | 0.04 | 0.24 | 0.23 | 98 | 1016.4 | |
| 20260904212427 | 54 | 0.0 | 0.0 | 0.04 | 0.24 | 0.23 | 98 | 1016.4 | |
| 20260904211428 | 53 | 0.0 | 0.0 | 0.05 | 0.24 | 0.23 | 95 | 1016.4 | |
| 20260904210428 | 54 | 0.0 | 0.0 | 0.04 | 0.23 | 0.21 | 95 | 1016.5 | |
| 20260904205428 | 54 | 0.0 | 0.0 | 0.04 | 0.22 | 0.20 | 94 | 1016.3 | |
| 20260904204428 | 54 | 0.0 | 0.0 | 0.03 | 0.21 | 0.20 | 96 | 1016.3 | |
| 20260904203428 | 54 | 0.0 | 0.0 | 0.04 | 0.21 | 0.19 | 96 | 1016.4 | |
| 20260904202428 | 55 | 0 | 0.0 | 0.0 | 0.05 | 0.20 | 0.19 | 98 | 1016.3 |
| 20260904201428 | 54 | 0.0 | 0.0 | 0.06 | 0.19 | 0.18 | 96 | 1016.2 | |
| 20260904200428 | 55 | 0.0 | 0.0 | 0.07 | 0.18 | 0.17 | 99 | 1016.1 | |
| 20260904195449 | 54 | 0.0 | 0.0 | 0.07 | 0.18 | 0.16 | 96 | 1016.2 | |
| 20260904194429 | 54 | 0.0 | 0.0 | 0.08 | 0.18 | 0.16 | 98 | 1016.1 | |
| 20260904193429 | 54 | 0.0 | 0.0 | 0.07 | 0.17 | 0.15 | 96 | 1016.2 | |
| 20260904192449 | 54 | 0.0 | 0.0 | 0.06 | 0.16 | 0.14 | 95 | 1016.5 | |
| 20260904191429 | 54 | 0.0 | 0.0 | 0.03 | 0.13 | 0.12 | 94 | 1016.5 | |
| 20260904190429 | 55 | 0.0 | 0.0 | 0.02 | 0.12 | 0.10 | 93 | 1016.5 | |
| 20260904185430 | 55 | 0.0 | 0.0 | 0.01 | 0.11 | 0.10 | 94 | 1016.5 | |
| 20260904184430 | 55 | 0.0 | 0.0 | 0.00 | 0.10 | 0.09 | 94 | 1016.5 | |
| 20260904183430 | 55 | 0.0 | 0.0 | 0.00 | 0.10 | 0.09 | 94 | 1016.5 | |
| 20260904182430 | 54 | 0.0 | 0.0 | 0.00 | 0.10 | 0.09 | 94 | 1016.5 | |
| 20260904181450 | 54 | 0.0 | 0.0 | 0.01 | 0.10 | 0.08 | 93 | 1016.5 | |
| 20260904180431 | 54 | 0.0 | 0.0 | 0.01 | 0.10 | 0.08 | 95 | 1016.6 | |
| 20260904175431 | 54 | 177 | 0.0 | 1.0 | 0.01 | 0.10 | 0.08 | 95 | 1016.6 |
| 20260904174431 | 54 | 0 | 0.0 | 0.0 | 0.01 | 0.10 | 0.08 | 95 | 1016.5 |
| 20260904173431 | 54 | 0.0 | 0.0 | 0.01 | 0.10 | 0.08 | 95 | 1016.3 | |
| 20260904172432 | 54 | 0.0 | 0.0 | 0.00 | 0.10 | 0.08 | 95 | 1016.2 | |
| 20260904171432 | 54 | 0.0 | 0.0 | 0.00 | 0.09 | 0.08 | 95 | 1016.0 | |
| 20260904170431 | 53 | 0.0 | 0.0 | 0.00 | 0.09 | 0.08 | 94 | 1016.2 | |
| 20260904165433 | 53 | 0 | 0.0 | 0.0 | 0.00 | 0.09 | 0.08 | 95 | 1016.0 |
| 20260904164432 | 53 | 0.0 | 0.0 | 0.00 | 0.09 | 0.08 | 96 | 1016.0 | |
| 20260904163417 | 53 | 0 | 0.0 | 0.0 | 0.00 | 0.09 | 0.08 | 96 | 1015.9 |
| 20260904162438 | 53 | 0.0 | 0.0 | 0.00 | 0.09 | 0.08 | 98 | 1015.9 | |
| 20260904161417 | 52 | 0.0 | 0.0 | 0.00 | 0.09 | 0.08 | 99 | 1015.8 | |
| 20260904160418 | 52 | 257 | 0.0 | 1.0 | 0.00 | 0.09 | 0.08 | 99 | 1015.9 |
| 20260904155417 | 51 | 91 | 0.0 | 0.0 | 0.00 | 0.09 | 0.08 | 99 | 1015.8 |
| 20260904154417 | 51 | 64 | 1.0 | 2.0 | 0.00 | 0.09 | 0.08 | 99 | 1015.8 |
| 20260904153437 | 51 | 34 | 2.0 | 3.0 | 0.00 | 0.09 | 0.08 | 99 | 1015.8 |
| 20260904152417 | 51 | 0 | 0.0 | 0.0 | 0.00 | 0.09 | 0.08 | 99 | 1015.7 |
| 20260904151419 | 50 | 110 | 1.0 | 1.0 | 0.00 | 0.09 | 0.08 | 99 | 1015.7 |
| 20260904150417 | 50 | 127 | 1.0 | 2.0 | 0.00 | 0.09 | 0.08 | 99 | 1015.7 |
| 20260904145418 | 50 | 210 | 1.0 | 2.0 | 0.00 | 0.09 | 0.08 | 99 | 1015.4 |
| 20260904144418 | 50 | 56 | 1.0 | 2.0 | 0.00 | 0.09 | 0.08 | 99 | 1015.2 |
| 20260904143418 | 50 | 162 | 1.0 | 2.0 | 0.00 | 0.09 | 0.08 | 99 | 1015.3 |
| 20260904142438 | 49 | 20 | 2.0 | 3.0 | 0.00 | 0.09 | 0.08 | 99 | 1015.3 |
| 20260904141419 | 49 | 198 | 1.0 | 2.0 | 0.00 | 0.09 | 0.08 | 99 | 1015.1 |
| 20260904140419 | 49 | 183 | 1.0 | 2.0 | 0.00 | 0.09 | 0.08 | 99 | 1014.8 |
| 20260904135419 | 49 | 38 | 1.0 | 2.0 | 0.00 | 0.09 | 0.08 | 99 | 1014.9 |
| 20260904134419 | 49 | 359 | 1.0 | 2.0 | 0.00 | 0.09 | 0.08 | 99 | 1015.0 |
| 20260904133420 | 48 | 200 | 1.0 | 1.0 | 0.00 | 0.09 | 0.08 | 99 | 1014.7 |
| 20260904132419 | 48 | 204 | 1.0 | 1.0 | 0.00 | 0.09 | 0.08 | 99 | 1014.6 |
| 20260904131420 | 48 | 206 | 1.0 | 1.0 | 0.00 | 0.09 | 0.08 | 99 | 1014.4 |
| 20260904130420 | 48 | 227 | 1.0 | 2.0 | 0.00 | 0.09 | 0.08 | 99 | 1014.3 |
| 20260904125420 | 49 | 202 | 1.0 | 1.0 | 0.00 | 0.09 | 0.08 | 99 | 1014.4 |
| 20260904124417 | 48 | 202 | 1.0 | 1.0 | 0.00 | 0.09 | 0.08 | 99 | 1014.3 |
| 20260904123418 | 48 | 202 | 1.0 | 1.0 | 0.00 | 0.09 | 0.08 | 99 | 1014.4 |
| 20260904122418 | 48 | 203 | 1.0 | 1.0 | 0.00 | 0.09 | 0.08 | 99 | 1014.4 |
| 20260904121418 | 48 | 205 | 1.0 | 1.0 | 0.00 | 0.09 | 0.08 | 99 | 1014.3 |
| 20260904120418 | 48 | 209 | 1.0 | 1.0 | 0.00 | 0.09 | 0.08 | 99 | 1014.3 |
| 20260904115418 | 49 | 221 | 1.0 | 2.0 | 0.00 | 0.09 | 0.08 | 99 | 1014.3 |
| 20260904114418 | 49 | 7 | 2.0 | 3.0 | 0.00 | 0.09 | 0.08 | 99 | 1013.9 |
| 20260904113419 | 49 | 205 | 1.0 | 1.0 | 0.00 | 0.09 | 0.08 | 99 | 1014.0 |
| 20260904112419 | 49 | 215 | 1.0 | 1.0 | 0.00 | 0.09 | 0.08 | 99 | 1014.1 |
| 20260904111419 | 49 | 346 | 2.0 | 2.0 | 0.00 | 0.10 | 0.08 | 99 | 1014.0 |
| 20260904110419 | 49 | 228 | 1.0 | 2.0 | 0.00 | 0.10 | 0.08 | 99 | 1013.9 |
| 20260904105419 | 49 | 351 | 2.0 | 2.0 | 0.00 | 0.10 | 0.08 | 99 | 1013.8 |
| 20260904104420 | 49 | 11 | 2.0 | 2.0 | 0.00 | 0.10 | 0.08 | 99 | 1014.0 |
| 20260904103420 | 49 | 213 | 1.0 | 1.0 | 0.00 | 0.12 | 0.08 | 99 | 1013.9 |
| 20260904102420 | 49 | 251 | 1.0 | 1.0 | 0.01 | 0.12 | 0.08 | 99 | 1013.8 |
| 20260904101420 | 49 | 27 | 1.0 | 2.0 | 0.02 | 0.13 | 0.08 | 99 | 1013.6 |
| 20260904100421 | 49 | 251 | 1.0 | 1.0 | 0.03 | 0.13 | 0.08 | 99 | 1013.4 |
| 20260904095421 | 49 | 200 | 1.0 | 1.0 | 0.03 | 0.13 | 0.08 | 99 | 1013.4 |
| 20260904094421 | 49 | 170 | 1.0 | 1.0 | 0.03 | 0.13 | 0.08 | 99 | 1013.2 |
| 20260904093421 | 49 | 145 | 1.0 | 1.0 | 0.03 | 0.14 | 0.08 | 99 | 1013.0 |
| 20260904092422 | 49 | 190 | 1.0 | 1.0 | 0.02 | 0.15 | 0.07 | 99 | 1013.2 |